Location: Blaesheim
(48.5057°N, 7.6093°E)
Time: 08:40:39
(UTC+00:00)

Daily predictions for brighter satellites

Satellite Brightness Start Highest point End
(mag) Time Altitude Azimuth Time Altitude Azimuth Time Altitude Azimuth
Cosmos 2082 Rocket 2.3 19:53:32 10° NNW 19:59:18 90° NNE 20:05:01 10° SSE
STARLINK-1091 4.1 19:55:31 10° WNW 19:59:31 50° SW 20:03:33 10° SE
IGS 5A 4.2 19:56:22 10° SE 20:00:12 38° ENE 20:04:04 10° N
DMSP B5D2-2 4.3 19:55:05 10° NNE 20:00:24 78° WNW 20:05:39 10° SSW
Cosmos 1420 Rocket 4.0 19:55:26 10° SSW 20:00:39 87° ESE 20:05:52 10° NNE
Cosmos 1452 Rocket 3.6 19:55:44 10° S 20:00:56 63° ESE 20:06:11 10° NNE
Cosmos 332 Rocket 4.1 19:56:32 10° S 20:01:15 49° ESE 20:05:58 10° NNE
BREEZE-M DEB 4.0 19:59:54 10° SSE 20:01:15 13° SE 20:03:04 10° E
STARLINK-1097 3.9 19:57:46 10° WNW 20:01:54 67° NNE 20:06:02 10° ESE
Intercosmos 24 3.7 19:58:43 10° N 20:02:17 65° ENE 20:06:03 10° SSE
STARLINK-1224 3.6 19:58:47 10° WSW 20:02:55 77° SSE 20:07:05 10° ENE
Landsat 7 4.4 19:58:42 10° SE 20:03:12 45° ENE 20:07:45 10° N
STARLINK-1072 4.2 20:00:32 10° WNW 20:04:31 46° SW 20:08:30 10° SE
MOS 1 Rocket 4.2 20:01:49 10° N 20:06:05 50° WNW 20:10:13 10° SW
STARLINK-1099 3.9 20:02:44 10° WNW 20:06:53 70° NNE 20:11:01 10° ESE
Cosmos 1461 3.3 20:03:33 10° S 20:07:28 42° ESE 20:11:35 10° NE
STARLINK-1225 3.6 20:03:46 10° WSW 20:07:55 82° SSE 20:12:04 10° ENE
STARLINK-1096 4.3 20:05:32 10° WNW 20:09:29 43° SW 20:13:24 10° SE
Okean 3 3.6 20:05:30 10° S 20:09:49 84° W 20:14:09 10° N
SAR-Lupe-2 4.4 20:07:43 10° NNE 20:11:01 32° E 20:14:16 10° SSE
Cosmos 2369 Rocket 3.9 20:08:20 10° SE 20:11:03 14° E 20:13:46 10° ENE
STARLINK-1104 3.8 20:07:42 10° WNW 20:11:52 73° NNE 20:16:00 10° ESE
STARLINK-1230 3.6 20:08:44 10° WSW 20:12:53 87° SSE 20:17:03 10° ENE
NOSS 2-2 (C) 4.3 20:11:00 10° S 20:13:48 22° ESE 20:16:48 10° ENE
STARLINK-1079 4.4 20:10:32 10° WNW 20:14:26 40° SW 20:18:19 10° SSE
STARLINK-1144 3.7 20:12:41 10° WNW 20:16:51 77° NNE 20:21:00 10° ESE
SL-4 R/B 3.3 20:14:38 10° WNW 20:17:01 21° WSW 20:19:16 10° SSW
Cosmos 2221 Rocket 3.9 20:13:11 10° SSW 20:17:42 77° W 20:22:17 10° N
STARLINK-1243 3.6 20:13:43 10° WSW 20:17:52 89° NNW 20:22:02 10° ENE
NOSS 3-2 (A) 4.5 20:11:57 10° NW 20:19:06 56° NE 20:27:12 10° ESE
SPOT 5 3.9 20:14:35 10° SE 20:19:24 38° ENE 20:24:19 10° N
NOSS 8 (F) 4.1 20:17:48 10° SSW 20:21:00 66° SE 20:24:02 10° NE
Meteor 1-13 Rocket 4.3 20:15:43 10° S 20:21:21 81° E 20:27:08 10° NNE
STARLINK-1103 3.7 20:17:39 10° WNW 20:21:50 80° NNE 20:25:59 10° ESE
STARLINK-1236 3.7 20:18:41 10° WSW 20:22:50 85° NNW 20:27:00 10° ENE
STARLINK-1187 4.5 20:21:11 10° WNW 20:24:04 34° N 20:26:57 10° ENE
ERS-1 Rocket 3.5 20:19:46 10° SE 20:24:32 45° ENE 20:29:20 10° N
STARLINK-1221 4.5 20:23:29 10° WNW 20:26:22 34° N 20:29:15 10° ENE
STARLINK-1101 3.6 20:22:38 10° WNW 20:26:49 85° NNE 20:30:58 10° ESE
STARLINK-1222 4.5 20:24:20 10° WNW 20:27:13 34° N 20:30:06 10° ENE
STARLINK-1214 4.5 20:25:14 10° WNW 20:28:07 34° N 20:31:01 10° ENE
Cosmos 1066 Rocket 4.4 20:23:51 10° S 20:29:01 51° E 20:34:12 10° NNE
USA 245 2.3 20:27:56 10° SSE 20:30:53 86° ENE 20:33:24 10° NNW
USA 238 DEB 4.2 20:23:59 10° NW 20:31:04 61° NE 20:38:24 10° ESE
USA 238 4.2 20:24:05 10° NW 20:31:10 60° NE 20:38:30 10° ESE
STARLINK-1102 3.6 20:27:38 10° WNW 20:31:48 89° NE 20:35:48 11° ESE
STARLINK-1228 4.4 20:29:18 10° WNW 20:32:38 40° N 20:35:58 10° E
STARLINK-1269 3.8 20:28:40 10° WSW 20:32:49 77° NNW 20:36:59 10° ENE
Okean 1 Rocket 3.2 20:29:23 10° N 20:33:49 61° ENE 20:37:54 12° SSE
Cosmos 2278 Rocket 3.3 20:28:25 10° SW 20:33:55 49° NW 20:39:26 10° NNE
TSX-5 4.3 20:28:29 10° SSW 20:34:04 72° ESE 20:38:22 10° NE
Cosmos 1805 4.1 20:30:24 10° N 20:34:04 36° ENE 20:37:07 14° SE
Cosmos 1741 Rocket 4.3 20:29:16 10° NNW 20:34:28 67° WSW 20:39:38 10° S
Okean 2 Rocket 4.1 20:30:16 10° NNW 20:34:28 44° W 20:38:37 10° SSW
Resurs 01 Rocket 2.8 20:30:17 10° SSW 20:34:28 40° W 20:38:42 10° NNW
Nadezhda 4 Rocket 4.1 20:29:33 10° SSE 20:35:30 56° E 20:41:29 10° NNE
STARLINK-1235 4.4 20:32:57 10° WNW 20:36:01 37° N 20:39:04 10° ENE
STARLINK-1111 3.6 20:32:36 10° WNW 20:36:46 87° SSW 20:40:34 12° ESE
STARLINK-1200 3.9 20:33:38 10° WSW 20:37:47 73° NNW 20:41:56 10° ENE
MetOp-B 4.5 20:32:58 10° S 20:38:17 66° WSW 20:43:38 10° NNW
STARLINK-1073 3.6 20:37:35 10° WNW 20:41:45 82° SSW 20:45:22 13° ESE
SL-8 R/B 3.8 20:37:04 10° W 20:41:51 66° SSW 20:46:17 12° ESE
Cosmos 2279 Rocket 4.5 20:36:21 10° NNW 20:42:29 61° W 20:48:34 10° S
STARLINK-1192 4.0 20:38:39 10° WSW 20:42:47 70° NNW 20:46:56 10° ENE
Cosmos 371 Rocket 4.2 20:41:02 10° SW 20:45:47 54° WNW 20:50:36 10° NNE
ATLAS 3B CENTAUR R/B 4.3 20:37:09 10° SW 20:46:20 21° S 20:50:57 13° SSE
STARLINK-1121 3.6 20:42:34 10° WNW 20:46:44 77° SSW 20:50:08 15° SE
SL-4 R/B 3.6 20:43:52 10° S 20:47:20 20° SE 20:50:53 10° E
STARLINK-1244 4.0 20:43:38 10° WSW 20:47:46 67° NNW 20:51:54 10° ENE
Cosmos 1110 Rocket 4.0 20:42:45 10° S 20:47:51 64° ESE 20:52:59 10° NNE
Terra 2.4 20:44:22 14° SE 20:48:11 45° ENE 20:52:44 10° N
Spot 2 Rocket 3.9 20:44:26 10° S 20:49:25 63° WSW 20:54:27 10° NNW
SPOT 1/Viking Rocket 3.6 20:45:17 11° SSE 20:50:16 84° WSW 20:55:28 10° NNW
Abrixas rocket 2.7 20:47:32 10° W 20:50:17 36° SSW 20:51:50 20° SSE
CARTOSAT-1 3.6 20:47:49 15° SSE 20:51:24 69° ENE 20:55:43 10° N
STARLINK-1106 3.6 20:47:34 10° WNW 20:51:43 73° SSW 20:54:56 16° SE
NOSS 8 (H) 4.0 20:49:01 10° SW 20:52:10 83° SE 20:55:14 10° NE
STARLINK-1138 4.1 20:48:38 10° WSW 20:52:46 64° NNW 20:56:53 10° ENE
STARLINK-1234 4.1 20:50:44 10° WNW 20:53:53 42° NNE 20:57:03 10° E
STARLINK-1112 3.7 20:52:31 10° WNW 20:56:39 68° SSW 20:59:41 18° SE
STARLINK-1143 4.2 20:53:37 10° W 20:57:44 61° NNW 21:01:51 10° ENE
STARLINK-1209 4.0 20:56:43 10° WNW 20:59:55 45° NNE 21:03:06 10° E
STARLINK-1128 3.7 20:57:30 10° WNW 21:01:37 64° SSW 21:04:28 19° SE
STARLINK-1241 4.3 20:58:40 10° W 21:02:46 59° NNW 21:06:52 10° ENE
Cosmos 1331 Rocket 3.9 20:59:29 10° SSW 21:04:38 79° ESE 21:09:51 10° NNE
Aureole 2 Rocket 3.0 21:02:27 10° SW 21:05:28 48° WNW 21:08:22 10° NNE
STARLINK-1113 3.8 21:02:30 10° WNW 21:06:36 59° SSW 21:09:15 20° SE
Cosmos 1733 3.4 21:03:27 10° N 21:07:14 56° ENE 21:09:32 21° SSE
STARLINK-1239 4.3 21:03:39 10° W 21:07:45 57° NNW 21:11:51 10° ENE
Cosmos 1437 Rocket 4.2 21:06:49 10° SW 21:10:21 36° WNW 21:13:57 10° N
COSMOS 2455 4.5 21:09:45 14° ESE 21:11:19 15° ESE 21:14:34 10° ENE
STARLINK-1119 3.8 21:07:31 10° WNW 21:11:35 55° SW 21:14:04 22° SE
STARLINK-1240 4.4 21:08:39 10° W 21:12:43 55° NNW 21:16:49 10° ENE
Cosmos 1378 3.0 21:09:41 14° S 21:12:46 87° E 21:16:30 10° N
Cosmos 1486 Rocket 4.5 21:09:20 10° NNW 21:14:33 53° ENE 21:18:13 19° SE
Cosmos 1302 Rocket 4.2 21:10:14 13° S 21:14:46 53° ESE 21:19:56 10° NNE
Cosmos 1271 Rocket 4.3 21:14:22 17° ESE 21:15:38 20° E 21:18:34 10° NE
USA 215 4.1 21:09:40 10° E 21:15:54 49° NNE 21:22:09 10° WNW
Cosmos 1544 Rocket 4.4 21:12:10 10° N 21:16:13 37° ENE 21:18:39 20° SE
STARLINK-1114 3.9 21:12:29 10° WNW 21:16:31 51° SW 21:18:49 23° SSE
Cosmos 1242 Rocket 3.8 21:15:26 22° SE 21:16:45 27° E 21:19:54 10° NNE
Cosmos 304 Rocket 4.5 21:12:28 10° SW 21:17:10 56° WNW 21:21:54 10° NNE
STARLINK-1203 4.5 21:13:29 10° W 21:17:37 53° NNW 21:21:45 10° ENE
STARLINK-1216 4.5 21:13:39 10° W 21:17:43 53° NNW 21:21:47 10° ENE
MTI 4.2 21:14:48 10° NNE 21:17:49 41° E 21:18:58 28° SSE
Lacrosse 5 4.0 21:15:51 10° W 21:18:42 15° WSW 21:21:31 10° SSW
STARLINK-60 4.3 21:20:10 22° ESE 21:20:10 22° ESE 21:21:59 10° E
Cosmos 1092 Rocket 3.9 21:15:31 13° S 21:21:00 76° E 21:27:10 10° NNE
STARLINK-1130 (DARKSAT) 4.0 21:17:30 10° WNW 21:21:30 48° SW 21:23:37 24° SSE
NOSS 2-2 (D) 3.2 21:18:24 10° SW 21:21:59 85° NW 21:26:04 10° NE
CENTAUR R/B 3.3 21:15:47 10° NW 21:23:41 72° NE 21:31:08 15° SE
Cosmos 1707 4.3 21:24:35 18° ESE 21:25:45 21° E 21:28:43 10° NE
STARLINK-1084 4.1 21:22:30 10° WNW 21:26:27 44° SW 21:28:24 25° SSE
ATLAS 3B R/B 3.6 21:20:24 10° NW 21:26:48 43° NE 21:33:23 10° ESE
SL-27 R/B 2.5 21:24:12 10° NNW 21:27:48 72° ENE 21:29:28 29° SSE
NOSS 3-2 (C) 4.1 21:21:31 10° NW 21:28:58 81° NE 21:35:37 18° SE
Cosmos 1766 3.6 21:26:17 10° NNW 21:30:13 61° W 21:32:47 21° S
Cosmos 1726 4.1 21:28:37 10° NNE 21:31:13 18° ENE 21:32:50 14° E
STARLINK-1098 4.2 21:27:30 10° WNW 21:31:25 41° SW 21:33:11 26° SSE
Cosmos 1867 4.2 21:28:34 10° NNW 21:33:54 50° NE 21:38:07 16° ESE
Cosmos 2195 Rocket 4.5 21:30:45 15° S 21:36:08 85° E 21:42:25 10° N
STARLINK-1123 4.3 21:32:29 10° WNW 21:36:21 38° SW 21:37:57 27° S
Cosmos 1943 Rocket 2.1 21:32:26 10° SSW 21:37:58 84° ESE 21:43:37 10° NNE
NOSS 2-2 (E) 4.2 21:35:49 10° WSW 21:39:22 50° NW 21:43:32 10° NE
NOSS 3-4 (A) 4.0 21:36:32 22° SSE 21:39:31 34° ESE 21:45:05 10° NE
NOSS 3-4 (C) 4.1 21:36:40 22° SSE 21:39:38 34° ESE 21:45:11 10° NE
STARLINK-1097 4.4 21:37:32 10° WNW 21:41:20 35° SW 21:42:45 27° S
Cosmos 2082 Rocket 4.4 21:39:16 10° WNW 21:42:33 16° W 21:45:50 10° SW
SeaSat 1 3.4 21:38:49 10° NE 21:43:04 29° ESE 21:44:34 24° SE
EO 1 Del DPAF 4.2 21:40:13 10° NE 21:43:35 30° E 21:44:29 27° ESE
Cosmos 1975 Rocket 3.2 21:44:36 19° SSW 21:47:46 73° W 21:52:12 10° N
STARLINK-1212 3.3 21:46:04 10° WNW 21:49:10 61° NNE 21:50:47 25° E
STARLINK-1105 3.2 21:46:33 10° WNW 21:49:38 61° NNE 21:51:13 25° E
STARLINK-1247 3.2 21:47:25 10° WNW 21:50:32 62° NNE 21:52:06 25° E
STARLINK-1227 3.2 21:47:55 10° WNW 21:51:00 62° NNE 21:52:32 26° E
Cosmos 292 Rocket 3.8 21:48:20 23° S 21:51:19 67° ESE 21:56:09 10° NNE
BREEZE-M DEB (TANK) 3.5 21:36:51 10° WSW 21:51:25 81° SSE 21:55:13 10° ENE
STARLINK-1226 3.2 21:48:46 10° WNW 21:51:52 63° NNE 21:53:23 27° E
BREEZE-M DEB (TANK) 2.9 21:48:18 10° W 21:52:18 80° N 21:56:07 10° E
STARLINK-1215 3.2 21:49:39 10° WNW 21:52:46 64° NNE 21:54:16 27° E
Cosmos 2369 Rocket 2.1 21:49:04 13° SSW 21:54:10 82° ESE 21:59:51 10° NNE
S3M 4.3 21:48:26 10° N 21:54:30 57° ENE 21:58:11 24° SE
STARLINK-1217 3.1 21:51:29 10° WNW 21:54:36 66° NNE 21:56:00 28° E
STARLINK-1229 3.1 21:52:23 10° WNW 21:55:30 66° NNE 21:56:54 29° E
STARLINK-1270 3.1 21:53:16 10° WNW 21:56:24 67° NNE 21:57:45 30° E
SPOT 5 4.2 21:53:31 15° SSW 21:57:26 36° W 22:02:22 10° NNW
STARLINK-1189 3.1 21:55:05 10° WNW 21:58:12 69° NNE 21:59:28 32° E
Aureole 3 Rocket 4.4 21:52:02 10° N 21:58:13 88° E 22:03:53 23° S
STARLINK-1188 3.0 21:55:59 10° WNW 21:59:07 70° NNE 22:00:22 32° E
ATLAS CENTAUR R/B 2.3 21:59:36 29° SE 22:00:00 30° ESE 22:03:39 10° ENE
STARLINK-1187 2.9 21:57:05 10° WNW 22:00:11 77° NNE 22:01:14 38° ESE
STARLINK-1197 4.5 21:56:47 10° WNW 22:00:50 50° NNE 22:04:53 10° E
Cosmos 1340 Rocket 3.8 21:57:08 10° N 22:00:55 36° ENE 22:02:31 26° ESE
STARLINK-1191 3.0 21:58:25 10° WNW 22:01:31 72° NNE 22:02:39 36° E
STARLINK-1221 3.0 21:59:23 10° WNW 22:02:29 73° NNE 22:03:35 36° E
STARLINK-1222 2.9 22:00:14 10° WNW 22:03:20 74° NNE 22:04:23 37° E
STARLINK-1214 2.9 22:01:07 10° WNW 22:04:14 75° NNE 22:05:16 38° E
Thor Agena Rocket 3.7 21:59:15 10° NNE 22:04:30 60° ESE 22:07:12 28° S
Cosmos 1025 Rocket 3.1 22:02:58 34° SSE 22:04:38 59° E 22:08:53 10° NNE
Okean 2 4.5 22:02:00 14° SW 22:05:13 41° WNW 22:09:11 10° N
EXPRESS MD2 4.1 22:01:32 10° W 22:05:29 83° N 22:13:48 10° E
Cosmos 2026 Rocket 4.2 22:00:23 16° SSW 22:05:31 71° W 22:11:54 10° N
STARLINK-1198 4.4 22:01:46 10° WNW 22:05:50 52° NNE 22:09:53 10° E
ATLAS 2AS CENTAUR R/B 3.1 22:00:30 13° SSW 22:07:34 61° ESE 22:15:22 10° NE
BREEZE M DEB (TANK) 1.8 22:04:33 10° W 22:07:49 78° N 22:08:33 37° ENE
Cosmos 1656 Rocket 3.8 22:04:50 26° S 22:07:50 56° ESE 22:13:16 10° NE
Cosmos 1553 Rocket 4.0 22:01:44 10° N 22:08:03 89° W 22:11:43 27° S
Cosmos 1953 2.7 22:05:25 10° N 22:09:20 51° ENE 22:10:41 34° SE
BREEZE-M DEB (TANK) 4.1 21:56:08 10° WNW 22:09:32 67° SSW 22:11:56 28° SE
STARLINK-1228 3.0 22:06:35 10° WNW 22:10:05 82° SSW 22:11:08 43° SE
NOSS 3-2 (A) 4.5 22:02:55 10° NW 22:10:09 50° WSW 22:15:11 23° S
Cosmos 1470 2.8 22:06:34 10° NNW 22:10:26 69° W 22:11:51 36° S
STARLINK-1199 4.3 22:06:47 10° WNW 22:10:51 53° NNE 22:14:55 10° E
APEX 4.2 22:06:47 14° SSW 22:12:21 84° ESE 22:17:39 10° NNE
STARLINK-1235 2.8 22:09:18 10° WNW 22:12:33 82° SSW 22:13:12 53° SE
Cosmos 2292 Rocket 4.1 22:13:24 29° ESE 22:13:51 30° E 22:16:43 10° NNE
Cosmos 968 Rocket 3.6 22:09:58 10° NNW 22:15:06 66° WSW 22:17:31 31° S
STARLINK-1210 4.3 22:11:45 10° WNW 22:15:50 55° NNE 22:19:55 10° E
Cosmos 1455 Rocket 4.0 22:13:11 10° NNW 22:17:14 39° W 22:19:25 23° SW
Cosmos 1655 Rocket 4.0 22:15:01 27° S 22:18:32 70° E 22:24:46 10° NNE
SL-4 R/B 2.5 22:20:18 23° NE 22:20:18 23° NE 22:21:43 10° N
STARLINK-1219 4.2 22:16:43 10° WNW 22:20:49 57° NNE 22:24:52 10° E
ATLAS 5 CENTAUR R/B 1.6 22:21:46 44° S 22:22:18 50° SE 22:24:37 10° ENE
Cosmos 1758 3.7 22:19:55 10° NNW 22:23:55 57° W 22:25:25 34° SSW
STARLINK-1211 4.1 22:21:43 10° WNW 22:25:50 59° NNE 22:29:40 12° E
Terra 3.5 22:23:14 15° SW 22:26:08 25° W 22:30:02 10° NW
SL-4 R/B 2.3 22:21:43 10° SW 22:26:30 70° SSE 22:31:20 10° ENE
Cosmos 2228 4.1 22:23:08 10° N 22:27:01 33° ENE 22:28:36 25° ESE
STARLINK-1234 3.0 22:27:05 10° WNW 22:30:16 58° SW 22:30:16 58° SW
STARLINK-1245 4.0 22:26:41 10° WNW 22:30:49 62° NNE 22:34:26 13° E
In-Cosmos 22 4.2 22:30:05 33° SSE 22:32:20 61° E 22:37:34 10° NNE
Cosmos 1503 Rocket 4.2 22:30:00 10° NNW 22:35:15 63° WSW 22:37:35 33° S
STARLINK-1233 4.0 22:31:39 10° WNW 22:35:47 64° NNE 22:39:12 15° E
STARLINK-1209 3.3 22:33:16 10° WNW 22:36:13 48° SW 22:36:13 48° SW
Cosmos 2266 Rocket 3.9 22:33:43 30° S 22:36:48 70° E 22:42:49 10° NNE
STARLINK-1204 3.9 22:36:38 10° WNW 22:40:47 67° NNE 22:43:59 16° ESE
SJ 16-02 3.9 22:40:32 10° NNE 22:42:56 14° NE 22:45:19 10° E
STARLINK-1238 3.8 22:41:39 10° WNW 22:45:48 70° NNE 22:48:47 18° ESE
Cosmos 1536 Rocket 3.9 22:45:44 31° SW 22:47:37 58° WNW 22:51:57 10° N
Cosmos 1674 3.0 22:48:20 45° SE 22:48:56 50° E 22:52:38 10° NNE
STARLINK-1201 3.7 22:46:37 10° WNW 22:50:46 74° NNE 22:53:33 20° ESE
Cosmos 1271 Rocket 4.0 22:49:29 22° WSW 22:51:24 35° WNW 22:55:03 10° N
STARLINK-60 3.3 22:52:21 12° WSW 22:55:11 63° NNW 22:58:22 10° ENE
Spot 4 4.4 22:53:29 31° SSW 22:55:23 47° W 23:00:05 10° NNW
STARLINK-1206 3.7 22:51:37 10° WNW 22:55:46 78° NNE 22:58:21 22° ESE
Cosmos 883 Rocket 4.4 22:49:47 10° N 22:55:57 85° W 22:58:57 32° S
COSMOS 2455 2.8 22:52:50 27° SSW 22:56:18 79° ESE 23:02:21 10° NE
Cosmos 2219 4.3 22:52:27 10° NNW 22:57:45 38° NE 23:02:18 13° ESE
USA 215 3.2 22:52:56 15° ESE 22:58:40 88° SW 23:05:15 10° NW
STARLINK-1205 3.6 22:56:35 10° WNW 23:00:44 82° NNE 23:03:07 25° ESE
Cosmos 1707 4.0 22:59:44 23° WSW 23:01:25 34° WNW 23:05:00 10° N
Cosmos 2297 Rocket 3.5 22:56:48 10° NNW 23:01:58 35° NE 23:07:00 10° ESE
Helios 1A 3.2 23:01:35 40° SE 23:02:57 65° ENE 23:07:07 10° N
Lacrosse 4 Rocket 4.2 23:02:34 10° N 23:05:21 16° NE 23:08:04 10° ENE
STARLINK-1218 3.6 23:01:35 10° WNW 23:05:44 86° NNE 23:07:55 27° ESE
Cosmos 1726 3.0 23:03:07 10° NNW 23:06:35 38° W 23:07:20 34° WSW
Cosmos 1174 3.5 23:06:36 49° WSW 23:07:22 72° NW 23:11:12 10° NNE
ALOS 2 2.7 23:07:47 42° SSW 23:09:05 63° W 23:13:28 10° NNW
Timation 2 Rocket 3.9 23:03:11 10° NNW 23:09:33 84° ENE 23:12:55 29° SSE
Cosmos 2058 Rocket 3.6 23:06:01 10° N 23:10:21 49° ENE 23:11:58 33° SE
COSMOS 2487 3.3 23:07:12 10° NW 23:10:25 35° WSW 23:10:32 35° WSW
STARLINK-1254 3.5 23:06:33 10° WNW 23:10:43 90° SSW 23:12:41 30° ESE
STARLINK-1372 4.4 23:15:07 31° ESE 23:15:07 31° ESE 23:17:42 10° ENE
CENTAUR R/B 3.9 23:06:52 10° NW 23:14:15 39° WSW 23:18:17 26° SSW
STARLINK-1231 3.5 23:11:31 10° WNW 23:15:41 85° SSW 23:17:27 33° ESE
Meteor 2-5 Rocket 3.8 23:14:12 35° SSE 23:16:30 66° E 23:22:05 10° NNE
Cosmos 1867 4.4 23:12:27 10° NW 23:17:21 34° WSW 23:18:45 30° SW
STARLINK-1378 4.3 23:18:28 34° ESE 23:18:28 34° ESE 23:21:13 10° ENE
ATLAS 3B R/B 2.8 23:11:07 10° NW 23:17:47 60° WSW 23:21:09 31° S
SL-14 R/B 3.9 23:19:11 37° ESE 23:19:50 41° E 23:23:29 10° NNE
FALCON 9 DEB 2.9 23:20:07 76° SSE 23:20:12 76° SSE 23:23:39 10° ENE
Cosmos 1606 Rocket 3.6 23:16:06 10° NNW 23:20:25 70° W 23:21:36 45° SSW
STARLINK-1232 3.5 23:16:31 10° WNW 23:20:41 81° SSW 23:22:15 37° SE
SeaSat 1 3.2 23:16:00 10° NNE 23:20:47 50° NW 23:24:20 17° WSW
STARLINK-1379 4.1 23:21:51 37° ESE 23:21:51 37° ESE 23:24:45 10° ENE
Cosmos 1943 Rocket 4.4 23:18:09 10° W 23:22:28 22° NW 23:26:48 10° N
STARLINK-1329 4.1 23:23:14 38° ESE 23:23:14 38° ESE 23:26:13 10° ENE
STARLINK-1224 4.5 23:18:44 10° WNW 23:22:48 51° NNE 23:26:51 10° E
Cosmos 2098 Rocket 4.4 23:20:07 29° SSW 23:24:12 81° W 23:31:45 10° N
STARLINK-29 3.2 23:24:02 38° W 23:25:04 67° NNW 23:28:16 10° ENE
STARLINK-1208 3.5 23:21:29 10° WNW 23:25:38 76° SSW 23:27:00 40° SE
STARLINK-1362 3.9 23:26:40 42° ESE 23:26:40 42° ESE 23:29:49 10° ENE
STARLINK-1225 4.4 23:23:44 10° WNW 23:27:48 53° NNE 23:31:53 10° E
ATLAS CENTAUR R/B 2.2 23:25:55 10° NW 23:28:00 40° NE 23:31:40 10° ESE
STARLINK-1373 3.8 23:30:05 45° SE 23:30:05 45° SE 23:33:25 10° ENE
NOSS 3-4 (A) 4.0 23:24:12 10° WSW 23:30:05 57° NW 23:36:29 10° NE
NOSS 3-4 (C) 4.0 23:24:16 10° WSW 23:30:11 58° NW 23:36:36 10° NE
STARLINK-1271 3.5 23:26:30 10° WNW 23:30:38 71° SSW 23:31:48 44° SE
RESURS DK-1 2.2 23:29:48 48° SSW 23:30:54 87° ESE 23:35:04 10° NNE
STARLINK-1365 3.7 23:31:12 49° SE 23:31:12 49° SE 23:34:42 10° ENE
STARLINK-1230 4.3 23:28:43 10° WNW 23:32:48 55° NNE 23:36:52 10° E
STARLINK-1390 3.6 23:33:34 49° SE 23:33:34 49° SE 23:37:03 10° ENE
Cosmos 2315 Rocket 4.3 23:28:01 10° NNW 23:34:03 56° W 23:36:59 30° SSW
Cosmos 2084 3.4 23:33:37 45° SSW 23:34:55 74° SE 23:39:24 10° NE
STARLINK-1154 3.5 23:31:28 10° WNW 23:35:36 67° SSW 23:36:35 47° SSE
BREEZE-M R/B 3.7 23:31:44 20° SW 23:36:15 48° SSE 23:40:01 10° E
Cosmos 1626 2.1 23:36:00 56° SSE 23:36:36 67° E 23:40:18 10° NNE
STARLINK-1243 4.3 23:33:43 10° WNW 23:37:49 56° NNE 23:41:54 10° E
ATLAS CENTAUR R/B 2.5 23:35:42 16° WSW 23:38:49 41° NW 23:42:43 10° NNE
Cosmos 2369 Rocket 4.3 23:34:26 10° W 23:38:53 23° NW 23:43:20 10° N
Okean 1-7 Rocket 3.6 23:37:39 44° S 23:39:01 80° E 23:43:35 10° NNE
Cosmos 2227 Rocket 2.8 23:33:30 10° NNW 23:39:04 53° NE 23:43:29 16° SE
STARLINK-1197 3.5 23:36:26 10° WNW 23:40:33 62° SSW 23:41:21 50° SSE
Cosmos 1908 4.2 23:38:24 10° NNW 23:41:52 33° W 23:42:29 31° WSW
CZ-4 R/B 4.1 23:37:34 10° NNE 23:42:16 55° E 23:43:50 37° SSE
Nadezhda 2 Rocket 4.4 23:39:44 33° SSW 23:42:42 83° W 23:48:53 10° N
STARLINK-1236 4.2 23:38:41 10° WNW 23:42:47 59° NNE 23:46:53 10° E
STARLINK-1198 3.6 23:41:26 10° WNW 23:45:30 58° SSW 23:46:07 51° S
Landsat 4 3.8 23:46:27 10° N 23:50:09 64° WNW 23:51:00 47° SW
STARLINK-1199 3.7 23:46:26 10° WNW 23:50:30 54° SSW 23:50:55 51° S
STARLINK-1269 4.0 23:48:39 10° WNW 23:52:47 63° NNE 23:56:54 10° E
Meteor 2-21 Rocket 4.4 23:50:06 33° S 23:53:05 85° E 23:59:20 10° N
STARLINK-1210 3.7 23:51:25 10° WNW 23:55:27 50° SW 23:55:42 50° SSW
